Regional Weather Roundup
Issued by NWS

Home | Current Version | Previous Version | Graphics & Text | Print | Product List | Glossary On
Versions: 1 2 3 4 5 6 7 8 9 10 11 12 13 14 15 16 17 18 19 20 21 22 23 24 25 26 27 28
000
ASUS45 KCYS 231710
RWRWY

WYOMING REGIONAL WEATHER ROUNDUP
NATIONAL WEATHER SERVICE CHEYENNE WY
1000 AM MST FRI FEB 23 2018

NOTE:  "FAIR" INDICATES FEW OR NO CLOUDS BELOW 12,000 FEET
WITH NO SIGNIFICANT WEATHER AND/OR OBSTRUCTIONS TO VISIBILITY.

WYZ001-231800-
YELLOWSTONE NATIONAL PARK

CITY           SKY/WX    TMP DP  RH WIND       PRES   REMARKS
LK YELLOWSTONE   N/A     -2  -6  83 E3        29.94F
W YELLOWSTONE  NOT AVBL

$$
WYZ002>013-054>058-071-098>099-231800-
NORTHERN WYOMING

CITY           SKY/WX    TMP DP  RH WIND       PRES   REMARKS
JACKSON        PTSUNNY    5  -1  76 NE10      29.99S WCI -10
CODY           FAIR      17   2  51 SW8       30.02F WCI   7
GREYBULL       FAIR      -9 -11  91 NW5       30.13F WCI -20
WORLAND        FAIR      -5  -8  87 CALM      30.10F
SHERIDAN       FAIR       2  -4  76 CALM      30.06F
BUFFALO        FAIR       9  -2  61 CALM      29.99F
GILLETTE       FAIR      12   0  58 CALM      30.06F
HULETT         FAIR      10  -2  56 CALM      30.08F
NEWCASTLE      FAIR       3  -4  72 CALM      30.13S

$$
WYZ014>020-022>026-101>103-231800-
CENTRAL WYOMING

CITY           SKY/WX    TMP DP  RH WIND       PRES   REMARKS
BIG PINEY      FAIR      15   8  73 N10       29.92F WCI   2
PINEDALE       FAIR      12   5  73 NW9       29.92F WCI   0
DUBOIS           N/A    N/A N/A N/A MISG        N/A
LANDER         FAIR       9   3  77 CALM      30.01S
RIVERTON       FAIR       6   0  76 CALM      30.02S
CASPER         FAIR       2  -5  72 CALM      30.02F
DOUGLAS        FAIR       2  -2  83 N3        30.07F

$$
WYZ021-027>030-104>119-231800-
SOUTHERN WYOMING

CITY           SKY/WX    TMP DP  RH WIND       PRES   REMARKS
EVANSTON       CLOUDY    10   6  84 E9        29.87S FOG     WCI  -3
ROCK SPRINGS   CLOUDY    11   7  84 NE3       29.90F FOG
DIXON          FAIR      28  15  58 E8        29.93F WCI  20
RAWLINS        CLOUDY    15  11  83 CALM      29.94S
SARATOGA       FAIR      23  12  63 SE9       29.92F WCI  13
LARAMIE        FAIR      13  12  96 SW3       29.91F
CHEYENNE       FAIR      25  16  68 S10       29.99F WCI  15
TORRINGTON     FAIR      21   9  59 CALM      30.11F
PINE BLUFFS    FAIR      14   7  73 MISG      30.08R

$$




USA.gov is the U.S. government's official web portal to all federal, state and local government web resources and services.